• In Belgium
  • List of Countries
  • For 7 days
  • Water Temperature
  • Satellite Maps
  • Weather Map
  • Weather Widgets
  • user-avatar
    Login

    Hourly Weather Adelaide

    Today, 22 November, Wednesday

    Time Temperature Precipitation Wind Pressure Humidity
    00:00 +28°C° 0 mm 5 mps 753 mmHg 23%
    01:00 +28°C° 0 mm 5 mps 753 mmHg 24%
    02:00 +27°C° 0 mm 5 mps 753 mmHg 24%
    03:00 +27°C° 0 mm 5 mps 753 mmHg 25%
    04:00 +27°C° 0 mm 5 mps 753 mmHg 26%
    05:00 +28°C° 0 mm 6 mps 754 mmHg 27%
    06:00 +28°C° 0 mm 6 mps 754 mmHg 28%
    07:00 +30°C° 0 mm 6 mps 754 mmHg 25%
    08:00 +33°C° 0 mm 6 mps 754 mmHg 22%
    09:00 +35°C° 0 mm 5 mps 754 mmHg 19%
    10:00 +35°C° 0 mm 6 mps 754 mmHg 21%
    11:00 +34°C° 0 mm 6 mps 754 mmHg 23%
    12:00 +34°C° 0 mm 6 mps 754 mmHg 25%
    13:00 +33°C° 0.1 mm 5 mps 753 mmHg 29%
    14:00 +32°C° 0.1 mm 4 mps 753 mmHg 32%
    15:00 +32°C° 0.1 mm 4 mps 753 mmHg 36%
    16:00 +30°C° 0.1 mm 3 mps 753 mmHg 40%
    17:00 +29°C° 0.1 mm 2 mps 753 mmHg 43%
    18:00 +28°C° 0.1 mm 2 mps 753 mmHg 47%
    19:00 +27°C° 0.2 mm 2 mps 753 mmHg 50%
    20:00 +26°C° 0.2 mm 3 mps 753 mmHg 53%
    21:00 +25°C° 0.2 mm 3 mps 753 mmHg 56%
    22:00 +24°C° 1.1 mm 3 mps 753 mmHg 60%
    23:00 +24°C° 1.1 mm 3 mps 752 mmHg 64%

    Tomorrow, 23 November, Thursday

    Time Temperature Precipitation Wind Pressure Humidity
    00:00 +23°C° 1.1 mm 2 mps 752 mmHg 69%
    01:00 +22°C° 0.4 mm 3 mps 752 mmHg 69%
    02:00 +21°C° 0.4 mm 3 mps 752 mmHg 70%
    03:00 +21°C° 0.4 mm 4 mps 752 mmHg 71%
    04:00 +21°C° 0.4 mm 3 mps 752 mmHg 69%
    05:00 +22°C° 0.4 mm 3 mps 752 mmHg 66%
    06:00 +22°C° 0.4 mm 3 mps 752 mmHg 63%
    07:00 +24°C° 0.1 mm 3 mps 752 mmHg 60%
    08:00 +25°C° 0.1 mm 3 mps 753 mmHg 57%
    09:00 +26°C° 0.1 mm 3 mps 753 mmHg 53%
    10:00 +26°C° 0.1 mm 3 mps 753 mmHg 53%
    11:00 +26°C° 0.1 mm 3 mps 753 mmHg 53%
    12:00 +26°C° 0.1 mm 3 mps 753 mmHg 53%
    13:00 +25°C° 1.6 mm 3 mps 753 mmHg 60%
    14:00 +24°C° 1.6 mm 3 mps 752 mmHg 66%
    15:00 +22°C° 1.6 mm 3 mps 752 mmHg 73%
    16:00 +22°C° 0.5 mm 3 mps 752 mmHg 74%
    17:00 +21°C° 0.5 mm 4 mps 752 mmHg 75%
    18:00 +21°C° 0.5 mm 4 mps 753 mmHg 76%
    19:00 +21°C° 0.1 mm 4 mps 753 mmHg 77%
    20:00 +20°C° 0.1 mm 4 mps 753 mmHg 78%
    21:00 +20°C° 0.1 mm 4 mps 754 mmHg 79%
    22:00 +20°C° 0.1 mm 4 mps 754 mmHg 80%
    23:00 +20°C° 0.1 mm 4 mps 753 mmHg 80%

    Day after tomorrow, 24 November, Friday

    Time Temperature Precipitation Wind Pressure Humidity
    00:00 +20°C° 0.1 mm 3 mps 753 mmHg 80%
    01:00 +19°C° 0 mm 3 mps 753 mmHg 79%
    02:00 +19°C° 0 mm 3 mps 753 mmHg 79%
    03:00 +19°C° 0 mm 3 mps 753 mmHg 78%
    04:00 +20°C° 0 mm 4 mps 753 mmHg 77%
    05:00 +20°C° 0 mm 4 mps 754 mmHg 75%
    06:00 +21°C° 0 mm 4 mps 754 mmHg 73%
    07:00 +23°C° 0 mm 4 mps 754 mmHg 65%
    08:00 +26°C° 0 mm 4 mps 754 mmHg 58%
    09:00 +27°C° 0 mm 3 mps 754 mmHg 50%
    10:00 +28°C° 0.4 mm 3 mps 754 mmHg 48%
    11:00 +29°C° 0.4 mm 3 mps 754 mmHg 46%
    12:00 +29°C° 0.4 mm 3 mps 754 mmHg 44%
    13:00 +29°C° 0.1 mm 3 mps 753 mmHg 45%
    14:00 +29°C° 0.1 mm 3 mps 753 mmHg 46%
    15:00 +28°C° 0.1 mm 3 mps 753 mmHg 47%
    16:00 +27°C° 0.1 mm 4 mps 753 mmHg 52%
    17:00 +26°C° 0.1 mm 4 mps 753 mmHg 58%
    18:00 +23°C° 0.1 mm 5 mps 753 mmHg 63%
    19:00 +22°C° 0 mm 4 mps 754 mmHg 68%
    20:00 +21°C° 0 mm 4 mps 754 mmHg 72%
    21:00 +20°C° 0 mm 4 mps 754 mmHg 76%
    22:00 +20°C° 0 mm 3 mps 754 mmHg 78%
    23:00 +20°C° 0 mm 3 mps 754 mmHg 80%

    25 November, Saturday

    Time Temperature Precipitation Wind Pressure Humidity
    00:00 +19°C° 0 mm 2 mps 754 mmHg 82%
    01:00 +19°C° 0 mm 2 mps 753 mmHg 83%
    02:00 +20°C° 0 mm 1 mps 753 mmHg 83%
    03:00 +20°C° 0 mm 1 mps 753 mmHg 84%
    04:00 +20°C° 0 mm 1 mps 754 mmHg 82%
    05:00 +21°C° 0 mm 1 mps 754 mmHg 80%
    06:00 +22°C° 0 mm 1 mps 754 mmHg 77%
    07:00 +23°C° 0 mm 2 mps 754 mmHg 72%
    08:00 +24°C° 0 mm 2 mps 755 mmHg 66%
    09:00 +26°C° 0 mm 2 mps 755 mmHg 61%
    10:00 +26°C° 0.2 mm 3 mps 755 mmHg 58%
    11:00 +27°C° 0.2 mm 3 mps 754 mmHg 56%
    12:00 +27°C° 0.2 mm 4 mps 754 mmHg 54%
    13:00 +27°C° 0 mm 4 mps 754 mmHg 52%
    14:00 +27°C° 0 mm 4 mps 754 mmHg 51%
    15:00 +28°C° 0 mm 4 mps 754 mmHg 49%
    16:00 +27°C° 0 mm 4 mps 754 mmHg 53%
    17:00 +25°C° 0 mm 4 mps 754 mmHg 57%
    18:00 +24°C° 0 mm 3 mps 755 mmHg 61%
    19:00 +22°C° 0 mm 3 mps 755 mmHg 68%
    20:00 +21°C° 0 mm 4 mps 756 mmHg 74%
    21:00 +19°C° 0 mm 4 mps 756 mmHg 81%
    22:00 +19°C° 0 mm 4 mps 756 mmHg 83%
    23:00 +19°C° 0 mm 3 mps 756 mmHg 85%

    26 November, Sunday

    Time Temperature Precipitation Wind Pressure Humidity
    00:00 +18°C° 0 mm 3 mps 756 mmHg 86%
    01:00 +18°C° 0 mm 3 mps 756 mmHg 87%
    02:00 +17°C° 0 mm 3 mps 756 mmHg 89%
    03:00 +17°C° 0 mm 3 mps 756 mmHg 90%
    04:00 +17°C° 0 mm 3 mps 756 mmHg 87%
    05:00 +18°C° 0 mm 3 mps 757 mmHg 85%
    06:00 +18°C° 0 mm 3 mps 757 mmHg 83%
    07:00 +19°C° 0 mm 3 mps 757 mmHg 76%
    08:00 +20°C° 0 mm 3 mps 758 mmHg 70%
    09:00 +21°C° 0 mm 3 mps 758 mmHg 63%
    10:00 +22°C° 0 mm 3 mps 758 mmHg 60%
    11:00 +23°C° 0 mm 4 mps 758 mmHg 57%
    12:00 +23°C° 0 mm 5 mps 758 mmHg 55%
    13:00 +23°C° 0 mm 5 mps 758 mmHg 53%
    14:00 +23°C° 0 mm 5 mps 757 mmHg 52%
    15:00 +23°C° 0 mm 5 mps 757 mmHg 51%
    16:00 +22°C° 0 mm 5 mps 758 mmHg 54%
    17:00 +21°C° 0 mm 5 mps 758 mmHg 57%
    18:00 +20°C° 0 mm 5 mps 759 mmHg 60%
    19:00 +19°C° 0 mm 5 mps 759 mmHg 66%
    20:00 +17°C° 0 mm 5 mps 759 mmHg 72%
    21:00 +16°C° 0 mm 5 mps 760 mmHg 79%
    22:00 +15°C° 0 mm 4 mps 759 mmHg 81%
    23:00 +15°C° 0 mm 4 mps 759 mmHg 83%

    27 November, Monday

    Time Temperature Precipitation Wind Pressure Humidity
    00:00 +14°C° 0 mm 4 mps 759 mmHg 85%
    01:00 +14°C° 0 mm 4 mps 759 mmHg 86%
    02:00 +13°C° 0 mm 4 mps 758 mmHg 86%
    03:00 +13°C° 0 mm 4 mps 758 mmHg 87%
    04:00 +14°C° 0 mm 4 mps 759 mmHg 83%
    05:00 +14°C° 0 mm 4 mps 759 mmHg 80%
    06:00 +15°C° 0 mm 4 mps 760 mmHg 76%
    07:00 +17°C° 0 mm 4 mps 760 mmHg 66%
    08:00 +19°C° 0 mm 4 mps 760 mmHg 56%
    09:00 +21°C° 0 mm 4 mps 760 mmHg 46%
    10:00 +22°C° 0 mm 4 mps 760 mmHg 42%
    11:00 +23°C° 0 mm 4 mps 759 mmHg 38%
    12:00 +26°C° 0 mm 4 mps 759 mmHg 34%
    13:00 +26°C° 0 mm 4 mps 758 mmHg 34%
    14:00 +26°C° 0 mm 5 mps 758 mmHg 35%
    15:00 +26°C° 0 mm 5 mps 757 mmHg 35%
    16:00 +24°C° 0 mm 6 mps 758 mmHg 42%
    17:00 +22°C° 0 mm 6 mps 758 mmHg 48%
    18:00 +21°C° 0 mm 6 mps 758 mmHg 55%
    19:00 +19°C° 0 mm 6 mps 758 mmHg 60%
    20:00 +17°C° 0 mm 6 mps 759 mmHg 65%
    21:00 +16°C° 0 mm 6 mps 759 mmHg 69%
    22:00 +16°C° 0 mm 5 mps 759 mmHg 71%
    23:00 +16°C° 0 mm 5 mps 758 mmHg 73%
    Show more